World > North America > United States > New York > Onchiota  

Onchiota, NY Hourly Weather Updates

Feedback E-mail the Weather

Quick Clicks

Onchiota, NY Weather Maps

°F °C°F °C
Onchiota Weather Map
UTC Time: 5/27/2024, 18:22
Your Time:

Onchiota, NY Regional Weather

Expires:202405271900;;976928
ASUS41 KBTV 271810
RWRBTV
VERMONT REGIONAL WEATHER ROUNDUP
NATIONAL WEATHER SERVICE BURLINGTON VT
200 PM EDT MON MAY 27 2024

NOTE: "FAIR" INDICATES FEW OR NO CLOUDS BELOW 12,000 FEET WITH NO 
SIGNIFICANT WEATHER AND/OR OBSTRUCTIONS TO VISIBILITY.

* THESE REPORTS ARE NOT UNDER NWS QUALITY CONTROL AND/OR DO NOT
  REPORT WEATHER SUCH AS PRECIPITATION AND FOG.


NYZ007-026>031-035-052-083-087-271900-
_____NORTHERN NEW YORK_
  
CITY           SKY/WX    TMP DP  RH WIND       PRES   REMARKS
PLATTSBURGH    PTSUNNY   76  60  57 S21G38    29.68F TC  24           
6HR MIN TEMP:  66; 6HR MAX TEMP:  77; 6HR PCP: TRACE;                

SARANAC LAKE   CLOUDY    73  59  61 S14G36    29.69F TC  23           
6HR MIN TEMP:  64; 6HR MAX TEMP:  74; 6HR PCP:  0.03;                

MASSENA        PTSUNNY   80  61  52 S21G31    29.56F TC  27           
6HR MIN TEMP:  69; 6HR MAX TEMP:  83; 6HR PCP: TRACE;                

OGDENSBURG*    LGT RAIN  70  68  94 SW6       29.54F TC  21           
POTSDAM*       MOSUNNY   73  66  78 S9G30     29.56F HAZE    TC  23   
WATERTOWN      RAIN      70  66  87 S8        29.56F FOG     TC  21   
6HR MIN TEMP:  70; 6HR MAX TEMP:  79; 6HR PCP:  0.08;                

FT DRUM        DRIZZLE   73  65  74 S16G22    29.53F TC  23           
6HR MIN TEMP:  70; 6HR MAX TEMP:  80; 6HR PCP:  0.01;                

ALBANY         LGT RAIN  74  65  73 SE16G29   29.75F TC  23           
6HR MIN TEMP:  72; 6HR MAX TEMP:  81; 6HR PCP: TRACE;                

GLENS FALLS    CLOUDY    77  64  64 S14G29    29.73F TC  25           
6HR MIN TEMP:  69; 6HR MAX TEMP:  77; 6HR PCP: TRACE;                


$$

SKY/WX - Weather  TMP - Temperature  DP - Dew Point  RH - Humidity
WIND - Wind Direction/Speed PRES - Barometric Pressure VSB - Visibility
WCI - Wind Chill Index E13G22 Wind - East Wind 13 mph/Gusts of 22 mph

Trending Headlines

Trending Entertainment Headlines

Onchiota Radar Loop

Use the map search tool if you want to place a location marker on the radar map...

Onchiota Quick Facts

National Two Day Weather Forecast


E-mail the Onchiota Weather Forecast

Voice your opinion or tell us about page issues...